Location: Oberwangen
(47.4286°N, 8.9679°E)
Time: 08:20:32
(UTC+00:00)

Cosmos 1455 - Pass Details

Date: 20 June 2021
Orbit: 496 x 521 km, 82.5° (Epoch: 04 August)

Event Time Altitude Azimuth Distance (km) Brightness Sun altitude
Rises 20:47:34 0° 8° (N) 2,647 6.6 -10.7°
Reaches altitude 10° 20:50:41 10° 35° (NE) 1,747 5.1 -11.0°
Maximum altitude 20:52:39 14° 66° (ENE) 1,527 4.5 -11.2°
Drops below altitude 10° 20:54:36 10° 97° (E) 1,732 4.5 -11.4°
Enters shadow 20:54:55 - 101° (ESE) 1,799 4.5 -11.4°
